This is the latest recevied weather packets stored in our database for station/object RV1CJ-14. If no packets are shown the sender has not sent any weather packets the latest 1 day(s).
| Time | Temp. | Humidity | Pressure | Rain* | Wind** | Luminosity | Snow |
|---|---|---|---|---|---|---|---|
| 1836274377 | 10.56° C | 95% | 1010 hPa | 0 mm | 0 m/s | 0 W/m² | - |
| 1836274227 | 10.56° C | 95% | 1010.1 hPa | 0 mm | 0 m/s | 0 W/m² | - |
| 1778050803 | 8.89° C | 70% | 1007.5 hPa | 0 mm | 0.45 m/s, 342° | 693 W/m² | - |
| 1778050203 | 8.89° C | 71% | 1007.4 hPa | 0 mm | 0.45 m/s, 342° | 684 W/m² | - |
| 1778049603 | 8.89° C | 73% | 1007.3 hPa | 0 mm | 0.45 m/s, 342° | 664 W/m² | - |
| 1778049005 | 8.33° C | 74% | 1007.2 hPa | 0 mm | 0.45 m/s, 342° | 649 W/m² | - |
| 1778048403 | 7.78° C | 74% | 1007.1 hPa | 0 mm | 0.45 m/s, 342° | 626 W/m² | - |
| 1778047803 | 7.78° C | 75% | 1007 hPa | 0 mm | 0.45 m/s, 342° | 606 W/m² | - |
| 1778047203 | 7.22° C | 76% | 1006.8 hPa | 0 mm | 0.45 m/s, 342° | 571 W/m² | - |
| 1778046605 | 6.67° C | 76% | 1006.7 hPa | 0 mm | 0.89 m/s, 342° | 213 W/m² | - |
| 1778046003 | 6.67° C | 76% | 1006.6 hPa | 0 mm | 0.89 m/s, 342° | 427 W/m² | - |
| 1778045403 | 6.67° C | 77% | 1006.5 hPa | 0 mm | 0.45 m/s, 342° | 120 W/m² | - |
| 1778044803 | 6.67° C | 78% | 1006.4 hPa | 0 mm | 0.45 m/s, 342° | 114 W/m² | - |
| 1778044203 | 6.67° C | 79% | 1006.3 hPa | 0 mm | 0.45 m/s, 342° | 104 W/m² | - |
| 1778043603 | 6.11° C | 79% | 1006.1 hPa | 0 mm | 0.89 m/s, 343° | 88 W/m² | - |
| 1778043003 | 6.11° C | 80% | 1005.9 hPa | 0 mm | 0.45 m/s, 342° | 88 W/m² | - |
| 1778042403 | 6.11° C | 81% | 1005.7 hPa | 0 mm | 0.45 m/s, 342° | 76 W/m² | - |
| 1778041803 | 6.11° C | 82% | 1005.5 hPa | 0 mm | 0.45 m/s, 342° | 176 W/m² | - |
| 1778041203 | 5.56° C | 83% | 1005.5 hPa | 0 mm | 0.45 m/s, 342° | 25 W/m² | - |
| 1778040603 | 6.11° C | 85% | 1005.4 hPa | 0 mm | 0.45 m/s, 342° | 37 W/m² | - |
| 1778040003 | 5.56° C | 86% | 1005.3 hPa | 0 mm | 0.45 m/s, 342° | 67 W/m² | - |
| 1778039403 | 5.56° C | 87% | 1005.2 hPa | 0 mm | 0.45 m/s, 342° | 69 W/m² | - |
| 1778038803 | 5.56° C | 87% | 1005 hPa | 0 mm | 0 m/s | 40 W/m² | - |
| 1778038203 | 5.56° C | 87% | 1004.8 hPa | 0 mm | 0.45 m/s, 342° | 37 W/m² | - |
| 1778037603 | 5.56° C | 86% | 1004.6 hPa | 0 mm | 0.45 m/s, 342° | 26 W/m² | - |
* Rain latest hour (hover to see other rain measurements)
** Current wind speed in m/s (hover to see current wind gust speed)